{"data":{"norad_id":64503,"intl_designator":"2025-134D","name":"KUIPER-00042","alt_names":[],"object_type":"PAYLOAD","status":"ACTIVE","operator":null,"country":"US","launch_date":"2025-06-23","launch_site_code":"AFETR","launch_vehicle":null,"mission":null,"orbit_class":"UNKNOWN","rcs_meters":null,"size_class":null,"mass_kg":null,"dimensions":null,"purposes":[],"wikipedia_slug":null,"has_3d_model":false,"image_url":null,"decayed_at":null,"tle_current":{"epoch":"2026-05-25T00:46:22.448064Z","epoch_age_seconds":68703,"freshness":"FRESH","line1":"1 64503U 25134D   26145.03220426  .00001500  00000+0  22565-3 0  9998","line2":"2 64503  51.8977 262.9714 0000354 115.7479 244.3520 14.79938725 51274","mean_motion":14.79938725,"eccentricity":3.54e-5,"inclination_deg":51.8977,"raan_deg":262.9714,"arg_perigee_deg":115.7479,"mean_anomaly_deg":244.352,"bstar":0.00022565,"rev_number":5127,"period_min":97.301325769417,"perigee_km":629.2694858556,"apogee_km":629.76562779822,"semimajor_km":7007.6545568269,"source":"CELESTRAK","updated_at":"2026-05-25T13:38:04.571580Z"}}}